RUM5560 SBRJ-SBKP

Flight info

Callsign RUM5560
Flight time 0h 50m
Altitude 34000
Route EVKOX2C ESORU UZ10 EDMUS ITEDI1A
Aircraft A319/M-SDE3FGHIRWY/LB1

Departure

Time 2026-05-04 15:06
Airport Santos Dumont Airport (SBRJ)

Arrival

Time 2026-05-04 15:56
Airport Viracopos International Airport (SBKP)
Time Latitude Longitude Altitude Speed Heading
2026-05-04 14:38 -22.91209 -43.16586 22 ft 0 kts 267°
2026-05-04 14:58 -22.91209 -43.16585 22 ft 1 kts 267°
2026-05-04 14:59 -22.91208 -43.16559 22 ft 4 kts 266°
2026-05-04 14:59 -22.91207 -43.16530 22 ft 4 kts 284°
2026-05-04 14:59 -22.91239 -43.16511 22 ft 1 kts 356°
2026-05-04 15:00 -22.91240 -43.16511 22 ft 0 kts 356°
2026-05-04 15:02 -22.91232 -43.16512 22 ft 5 kts 356°
2026-05-04 15:02 -22.91142 -43.16518 23 ft 16 kts 356°
2026-05-04 15:02 -22.91030 -43.16538 24 ft 16 kts 355°
2026-05-04 15:02 -22.90913 -43.16547 22 ft 17 kts 356°
2026-05-04 15:03 -22.90790 -43.16541 22 ft 18 kts
2026-05-04 15:03 -22.90663 -43.16549 23 ft 19 kts 356°
2026-05-04 15:03 -22.90532 -43.16555 22 ft 19 kts
2026-05-04 15:03 -22.90495 -43.16480 23 ft 3 kts 86°
2026-05-04 15:04 -22.90494 -43.16451 23 ft 7 kts 86°
2026-05-04 15:04 -22.90489 -43.16399 24 ft 7 kts 76°
2026-05-04 15:04 -22.90469 -43.16351 26 ft 7 kts 68°
2026-05-04 15:04 -22.90472 -43.16332 24 ft 2 kts 117°
2026-05-04 15:05 -22.90500 -43.16319 24 ft 4 kts 171°
2026-05-04 15:05 -22.90508 -43.16318 24 ft 0 kts 171°
2026-05-04 15:05 -22.90540 -43.16315 24 ft 30 kts 176°
2026-05-04 15:05 -22.91093 -43.16280 22 ft 127 kts 176°
2026-05-04 15:06 -22.92141 -43.16215 479 ft 155 kts 177°
2026-05-04 15:06 -22.93154 -43.15817 1258 ft 164 kts 140°
2026-05-04 15:06 -22.93933 -43.14889 2011 ft 173 kts 130°
2026-05-04 15:07 -22.95797 -43.12740 2875 ft 219 kts 137°
2026-05-04 15:07 -22.96993 -43.11604 3538 ft 232 kts 138°
2026-05-04 15:07 -22.98226 -43.10464 4550 ft 233 kts 141°
2026-05-04 15:07 -22.99714 -43.09743 5414 ft 242 kts 175°
2026-05-04 15:08 -23.01400 -43.10127 6031 ft 262 kts 207°
2026-05-04 15:08 -23.02967 -43.11257 6733 ft 276 kts 219°
2026-05-04 15:08 -23.04449 -43.12625 7611 ft 282 kts 222°
2026-05-04 15:08 -23.05921 -43.14072 8026 ft 287 kts 223°
2026-05-04 15:09 -23.07276 -43.15651 8162 ft 286 kts 240°
2026-05-04 15:09 -23.07738 -43.17722 8461 ft 290 kts 276°
2026-05-04 15:09 -23.07012 -43.19705 9404 ft 291 kts 309°
2026-05-04 15:10 -23.03336 -43.21615 10752 ft 316 kts 350°
2026-05-04 15:10 -23.01177 -43.22245 11149 ft 334 kts 333°
2026-05-04 15:10 -22.97698 -43.25602 12542 ft 343 kts 312°
2026-05-04 15:11 -22.96075 -43.27518 13356 ft 346 kts 311°
2026-05-04 15:11 -22.94433 -43.29451 14126 ft 350 kts 311°
2026-05-04 15:11 -22.92777 -43.31397 14883 ft 353 kts 311°
2026-05-04 15:11 -22.91104 -43.33371 15624 ft 356 kts 311°
2026-05-04 15:12 -22.89439 -43.35378 16345 ft 360 kts 310°
2026-05-04 15:12 -22.87777 -43.37418 17041 ft 363 kts 310°
2026-05-04 15:12 -22.86103 -43.39487 17729 ft 366 kts 309°
2026-05-04 15:12 -22.84418 -43.41571 18394 ft 369 kts 309°
2026-05-04 15:13 -22.82717 -43.43671 19048 ft 373 kts 309°
2026-05-04 15:13 -22.80996 -43.45792 19703 ft 376 kts 309°
2026-05-04 15:13 -22.79260 -43.47924 20341 ft 379 kts 309°
2026-05-04 15:13 -22.77507 -43.50069 20963 ft 382 kts 310°
2026-05-04 15:14 -22.75739 -43.52226 21583 ft 385 kts 310°
2026-05-04 15:14 -22.73982 -43.54422 22199 ft 386 kts 306°
2026-05-04 15:14 -22.72597 -43.56910 22783 ft 387 kts 293°
2026-05-04 15:14 -22.71766 -43.59683 23344 ft 388 kts 280°
2026-05-04 15:15 -22.71524 -43.62595 23897 ft 391 kts 268°
2026-05-04 15:15 -22.71822 -43.65532 24432 ft 393 kts 261°
2026-05-04 15:15 -22.72228 -43.68463 24948 ft 395 kts 262°
2026-05-04 15:16 -22.73029 -43.74390 25928 ft 400 kts 262°
2026-05-04 15:16 -22.73492 -43.77324 26373 ft 402 kts 257°
2026-05-04 15:16 -22.75309 -43.83094 27265 ft 407 kts 251°
2026-05-04 15:17 -22.76272 -43.85987 27704 ft 409 kts 251°
2026-05-04 15:17 -22.78208 -43.91818 28556 ft 414 kts 251°
2026-05-04 15:17 -22.79182 -43.94759 28970 ft 416 kts 251°
2026-05-04 15:18 -22.80161 -43.97716 29361 ft 418 kts 251°
2026-05-04 15:18 -22.80827 -43.99723 29624 ft 419 kts 251°
2026-05-04 15:18 -22.81814 -44.02699 29991 ft 421 kts 251°
2026-05-04 15:19 -22.83784 -44.08670 30701 ft 425 kts 251°
2026-05-04 15:19 -22.84782 -44.11701 31015 ft 427 kts 251°
2026-05-04 15:19 -22.86787 -44.17801 31692 ft 431 kts 251°
2026-05-04 15:20 -22.87796 -44.20873 32025 ft 433 kts 251°
2026-05-04 15:20 -22.88805 -44.23950 32466 ft 432 kts 251°
2026-05-04 15:20 -22.89809 -44.27010 32935 ft 430 kts 251°
2026-05-04 15:20 -22.90811 -44.30061 33375 ft 428 kts 251°
2026-05-04 15:21 -22.91808 -44.33099 33813 ft 426 kts 251°
2026-05-04 15:21 -22.92801 -44.36129 34125 ft 426 kts 251°
2026-05-04 15:22 -22.95759 -44.45158 34200 ft 424 kts 251°
2026-05-04 15:22 -22.98713 -44.54215 34212 ft 424 kts 251°
2026-05-04 15:23 -23.00682 -44.60247 34217 ft 424 kts 251°
2026-05-04 15:23 -23.02644 -44.66287 34213 ft 424 kts 251°
2026-05-04 15:24 -23.05566 -44.78676 34214 ft 424 kts 256°
2026-05-04 15:25 -23.06958 -44.84849 34215 ft 423 kts 256°
2026-05-04 15:26 -23.09054 -44.94167 34217 ft 423 kts 256°
2026-05-04 15:26 -23.11142 -45.03497 34215 ft 424 kts 256°
2026-05-04 15:27 -23.13216 -45.12842 34217 ft 424 kts 257°
2026-05-04 15:28 -23.15283 -45.22148 34222 ft 424 kts 257°
2026-05-04 15:28 -23.16642 -45.28253 34213 ft 409 kts 256°
2026-05-04 15:29 -23.17309 -45.31256 34214 ft 408 kts 257°
2026-05-04 15:30 -23.21931 -45.52169 34219 ft 407 kts 257°
2026-05-04 15:31 -23.24104 -45.61098 34221 ft 407 kts 253°
2026-05-04 15:32 -23.28353 -45.75784 34236 ft 407 kts 253°
2026-05-04 15:34 -23.32421 -45.90495 33871 ft 405 kts 253°
2026-05-04 15:34 -23.33236 -45.93440 33115 ft 406 kts 253°
2026-05-04 15:34 -23.34866 -45.99336 31655 ft 408 kts 253°
2026-05-04 15:35 -23.36482 -46.05198 30515 ft 403 kts 253°
2026-05-04 15:35 -23.37289 -46.08112 29953 ft 400 kts 253°
2026-05-04 15:35 -23.38097 -46.11001 29383 ft 397 kts 252°
2026-05-04 15:36 -23.39716 -46.16714 28267 ft 391 kts 252°
2026-05-04 15:36 -23.40511 -46.19501 27725 ft 388 kts 252°
2026-05-04 15:36 -23.41307 -46.22306 27188 ft 386 kts 252°
2026-05-04 15:37 -23.42097 -46.25105 26657 ft 384 kts 253°
2026-05-04 15:37 -23.42875 -46.27873 26139 ft 381 kts 253°
2026-05-04 15:37 -23.43641 -46.30604 25646 ft 379 kts 253°
2026-05-04 15:37 -23.44386 -46.33345 25171 ft 376 kts 256°
2026-05-04 15:38 -23.44693 -46.36166 24682 ft 374 kts 270°
2026-05-04 15:38 -23.44387 -46.38965 24182 ft 373 kts 282°
2026-05-04 15:38 -23.43495 -46.41621 23672 ft 374 kts 295°
2026-05-04 15:38 -23.42097 -46.44004 23172 ft 373 kts 303°
2026-05-04 15:39 -23.40595 -46.46308 22684 ft 371 kts 303°
2026-05-04 15:39 -23.39105 -46.48597 22198 ft 369 kts 303°
2026-05-04 15:39 -23.36169 -46.53102 21238 ft 363 kts 303°
2026-05-04 15:40 -23.34708 -46.55345 20757 ft 361 kts 303°
2026-05-04 15:40 -23.33279 -46.57542 20261 ft 358 kts 303°
2026-05-04 15:40 -23.31844 -46.59746 19721 ft 355 kts 303°
2026-05-04 15:40 -23.30417 -46.61939 19178 ft 353 kts 303°
2026-05-04 15:41 -23.28901 -46.64039 18645 ft 351 kts 312°
2026-05-04 15:41 -23.27088 -46.65774 18137 ft 350 kts 319°
2026-05-04 15:41 -23.25196 -46.67437 17601 ft 348 kts 319°
2026-05-04 15:41 -23.23319 -46.69084 17077 ft 345 kts 319°
2026-05-04 15:42 -23.21452 -46.70722 16569 ft 343 kts 319°
2026-05-04 15:42 -23.19597 -46.72354 16070 ft 341 kts 319°
2026-05-04 15:42 -23.17762 -46.73967 15570 ft 339 kts 319°
2026-05-04 15:42 -23.15958 -46.75551 15076 ft 337 kts 319°
2026-05-04 15:43 -23.14141 -46.77151 14565 ft 334 kts 319°
2026-05-04 15:43 -23.12337 -46.78736 14001 ft 331 kts 319°
2026-05-04 15:43 -23.10547 -46.80308 13431 ft 328 kts 319°
2026-05-04 15:43 -23.08791 -46.81853 12863 ft 327 kts 320°
2026-05-04 15:44 -23.07024 -46.83406 12335 ft 325 kts 320°
2026-05-04 15:44 -23.05279 -46.84965 11852 ft 324 kts 316°
2026-05-04 15:44 -23.03821 -46.86807 11432 ft 320 kts 302°
2026-05-04 15:44 -23.02837 -46.88952 11014 ft 317 kts 288°
2026-05-04 15:45 -23.02339 -46.91267 10588 ft 312 kts 279°
2026-05-04 15:45 -23.01772 -46.93540 10136 ft 311 kts 292°
2026-05-04 15:45 -23.00781 -46.95534 10038 ft 298 kts 304°
2026-05-04 15:45 -22.99535 -46.97292 9811 ft 291 kts 308°
2026-05-04 15:46 -22.98295 -46.99011 9472 ft 287 kts 308°
2026-05-04 15:46 -22.97067 -47.00705 9225 ft 282 kts 308°
2026-05-04 15:46 -22.95844 -47.02382 9230 ft 285 kts 309°
2026-05-04 15:46 -22.94608 -47.04083 9230 ft 288 kts 309°
2026-05-04 15:47 -22.93375 -47.05782 9213 ft 286 kts 308°
2026-05-04 15:47 -22.92161 -47.07463 9224 ft 286 kts 308°
2026-05-04 15:47 -22.90932 -47.09162 9207 ft 285 kts 308°
2026-05-04 15:47 -22.89714 -47.10847 8769 ft 283 kts 308°
2026-05-04 15:48 -22.88494 -47.12529 8316 ft 282 kts 309°
2026-05-04 15:48 -22.87300 -47.14170 7904 ft 279 kts 309°
2026-05-04 15:48 -22.84903 -47.17470 7083 ft 277 kts 309°
2026-05-04 15:49 -22.83712 -47.19106 7001 ft 276 kts 309°
2026-05-04 15:49 -22.82592 -47.20810 7016 ft 278 kts 299°
2026-05-04 15:49 -22.81920 -47.22784 7024 ft 280 kts 282°
2026-05-04 15:49 -22.81790 -47.24871 7013 ft 281 kts 266°
2026-05-04 15:50 -22.82026 -47.26980 7011 ft 282 kts 263°
2026-05-04 15:50 -22.82266 -47.29044 7013 ft 267 kts 263°
2026-05-04 15:50 -22.82545 -47.30963 7016 ft 249 kts 254°
2026-05-04 15:50 -22.83448 -47.32474 6933 ft 238 kts 220°
2026-05-04 15:51 -22.84961 -47.33199 6444 ft 245 kts 183°
2026-05-04 15:51 -22.86582 -47.32807 6233 ft 238 kts 148°
2026-05-04 15:51 -22.87754 -47.31594 5975 ft 232 kts 127°
2026-05-04 15:51 -22.88718 -47.30234 5668 ft 227 kts 126°
2026-05-04 15:52 -22.89660 -47.28902 5384 ft 216 kts 126°
2026-05-04 15:52 -22.90560 -47.27645 5098 ft 205 kts 127°
2026-05-04 15:52 -22.91414 -47.26457 4839 ft 194 kts 126°
2026-05-04 15:52 -22.92203 -47.25360 4601 ft 172 kts 126°
2026-05-04 15:53 -22.92894 -47.24399 4357 ft 155 kts 126°
2026-05-04 15:53 -22.93531 -47.23511 4161 ft 145 kts 126°
2026-05-04 15:53 -22.94139 -47.22660 3977 ft 141 kts 126°
2026-05-04 15:53 -22.94742 -47.21821 3791 ft 139 kts 126°
2026-05-04 15:54 -22.95335 -47.20995 3605 ft 138 kts 126°
2026-05-04 15:54 -22.95925 -47.20173 3419 ft 138 kts 127°
2026-05-04 15:54 -22.96513 -47.19353 3241 ft 138 kts 126°
2026-05-04 15:54 -22.97103 -47.18530 3053 ft 138 kts 126°
2026-05-04 15:55 -22.97682 -47.17721 2876 ft 138 kts 126°
2026-05-04 15:55 -22.98268 -47.16904 2694 ft 137 kts 126°
2026-05-04 15:55 -22.98853 -47.16087 2509 ft 137 kts 126°
2026-05-04 15:55 -22.99437 -47.15274 2329 ft 136 kts 127°
2026-05-04 15:56 -23.00017 -47.14464 2160 ft 134 kts 127°
2026-05-04 15:56 -23.00519 -47.13754 2151 ft 96 kts 128°
2026-05-04 15:56 -23.00824 -47.13327 2152 ft 47 kts 128°
2026-05-04 15:56 -23.00995 -47.13088 2154 ft 40 kts 128°
2026-05-04 15:57 -23.01155 -47.12899 2155 ft 33 kts 144°
2026-05-04 15:57 -23.01338 -47.12804 2153 ft 17 kts 172°
2026-05-04 15:57 -23.01356 -47.12806 2156 ft 0 kts 191°
2026-05-04 15:57 -23.01359 -47.12806 2153 ft 3 kts 191°
2026-05-04 15:58 -23.01386 -47.12829 2152 ft 5 kts 248°
2026-05-04 15:58 -23.01383 -47.12866 2157 ft 6 kts 292°
2026-05-04 15:58 -23.01347 -47.12919 2154 ft 12 kts 308°
2026-05-04 15:58 -23.01290 -47.13003 2157 ft 16 kts 308°
2026-05-04 15:59 -23.01214 -47.13110 2157 ft 20 kts 305°
2026-05-04 15:59 -23.01119 -47.13238 2157 ft 24 kts 309°
2026-05-04 15:59 -23.01023 -47.13373 2152 ft 21 kts 307°
2026-05-04 15:59 -23.00941 -47.13489 2157 ft 18 kts 308°
2026-05-04 16:00 -23.00865 -47.13594 2155 ft 18 kts 308°
2026-05-04 16:00 -23.00790 -47.13697 2157 ft 16 kts 308°
2026-05-04 16:00 -23.00728 -47.13792 2155 ft 14 kts 296°
2026-05-04 16:00 -23.00713 -47.13887 2155 ft 13 kts 280°
2026-05-04 16:01 -23.00672 -47.14012 2154 ft 19 kts 298°
2026-05-04 16:01 -23.00600 -47.14123 2155 ft 17 kts 307°
2026-05-04 16:01 -23.00522 -47.14232 2153 ft 20 kts 308°
2026-05-04 16:01 -23.00444 -47.14340 2155 ft 17 kts 307°
2026-05-04 16:02 -23.00379 -47.14431 2157 ft 14 kts 308°
2026-05-04 16:02 -23.00325 -47.14507 2157 ft 11 kts 307°
2026-05-04 16:02 -23.00268 -47.14636 2154 ft 1 kts 249°
2026-05-04 16:03 -23.00276 -47.14649 2153 ft 7 kts 231°
2026-05-04 16:03 -23.00318 -47.14674 2155 ft 6 kts 212°
2026-05-04 16:03 -23.00350 -47.14699 2153 ft 10 kts 218°
2026-05-04 16:03 -23.00399 -47.14770 2157 ft 8 kts 270°
2026-05-04 16:04 -23.00383 -47.14804 2157 ft 4 kts 302°
2026-05-04 16:04 -23.00390 -47.14845 2157 ft 1 kts 243°
2026-05-04 16:04 -23.00403 -47.14858 2157 ft 1 kts 221°
2026-05-04 16:05 -23.00404 -47.14859 2151 ft 0 kts 220°